Weather History for Kiana, AK

Change the Weather History Date:

Friday, March 1, 2013

  Actual Average (PASK) Record (PASK)
Temperature  
Mean Temperature -12 °F -  
Max Temperature -25 °F 4 °F 32 °F (2014)
Min Temperature -23 °F -4 °F -36 °F (2007)
Degree Days  
Heating Degree Days 77    
Moisture  
Dew Point -17 °F    
Average Humidity 74    
Maximum Humidity 83    
Minimum Humidity 59    
Precipitation  
Precipitation 0.00 in - - ()
Sea Level Pressure  
Sea Level Pressure 30.11 in    
Wind  
Wind Speed 7 mph (SSW)    
Max Wind Speed 10 mph    
Max Gust Speed -    
Visibility 9 miles    
Events Snow    
Averages and records for this station are not official NWS values.
T = Trace of Precipitation, MM = Missing Value Source: NWS Daily Summary

Daily Weather History Graph

Daily Weather History Graph

Search for Another Location

Airport:

Trip Planner

Search our weather history database for the weather conditions in past years. The results will help you decide how hot, cold, wet, or windy it might be!

Date:

Astronomy

Mar. 01, 2013 Rise Set
Actual Time 8:55 AM AKST 6:54 PM AKST
Civil Twilight 8:01 AM AKST 7:48 PM AKST
Nautical Twilight 7:00 AM AKST 8:49 PM AKST
Astronomical Twilight 5:56 AM AKST 9:54 PM AKST
Moon 12:35 AM AKST (3/1) 8:37 AM AKST (3/1)
Length of Visible Light 11h 46m
Length of Day
9h 58m
Waning Gibbous, 82% of the Moon is Illuminated
Mar 1
Waning Gibbous
Mar 4
Last Quarter
Mar 11
New
Mar 19
First Quarter
Mar 27
Full

Hourly Weather History & Observations

Time (AKST) Temp. Windchill Dew Point Humidity Pressure Visibility Wind Dir Wind Speed Gust Speed Precip Events Conditions
12:01 AM -4.0 °F -17.8 °F -8.0 °F 83% 29.91 in 9.0 mi SSW 6.9 mph - 0.00 in Snow Light Snow
1:01 AM -2.9 °F -16.5 °F -8.0 °F 79% 29.93 in 9.0 mi SW 6.9 mph - 0.00 in Snow Light Snow
2:01 AM -5.1 °F -20.4 °F -9.9 °F 80% 29.96 in 9.0 mi SW 8.1 mph - 0.00 in Snow Light Snow
3:01 AM -5.1 °F -19.1 °F -9.9 °F 80% 29.98 in 9.0 mi SW 6.9 mph - 0.00 in Snow Light Snow
4:01 AM -8.0 °F -22.5 °F -13.0 °F 79% 30.00 in 9.0 mi SSW 6.9 mph - 0.00 in Snow Light Snow
5:01 AM -8.0 °F -23.9 °F -13.0 °F 79% 30.03 in 5.0 mi SW 8.1 mph - 0.00 in Snow Light Snow
5:14 AM -7.6 °F -22.1 °F -13.0 °F 77% 29.89 in 2.5 mi SSW 6.9 mph - 0.00 in Snow Light Snow
5:30 AM -7.6 °F -25.7 °F -13.0 °F 77% 29.90 in 5.0 mi SSW 10.4 mph - 0.00 in Snow Light Snow
5:56 AM -9.4 °F -26.8 °F -14.8 °F 77% 29.91 in 9.0 mi SSW 9.2 mph - 0.00 in Snow Light Snow
6:01 AM -9.0 °F -26.4 °F -14.1 °F 79% 30.06 in 9.0 mi SSW 9.2 mph - 0.00 in Snow Light Snow
7:01 AM -11.0 °F -24.6 °F -16.1 °F 78% 30.08 in 10.0 mi SW 5.8 mph - 0.00 in   Partly Cloudy
8:01 AM -11.0 °F -24.6 °F -16.1 °F 78% 30.09 in 10.0 mi SSW 5.8 mph - N/A   Mostly Cloudy
9:01 AM -11.9 °F -25.7 °F -17.0 °F 78% 30.11 in 10.0 mi SW 5.8 mph - N/A   Overcast
10:01 AM -11.9 °F -29.9 °F -17.0 °F 78% 30.13 in 10.0 mi SSW 9.2 mph - N/A   Overcast
11:01 AM -13.0 °F -28.6 °F -18.0 °F 78% 30.16 in 10.0 mi SSW 6.9 mph - N/A   Mostly Cloudy
12:01 PM -11.0 °F -27.6 °F -18.0 °F 71% 30.18 in 10.0 mi SSW 8.1 mph - N/A   Mostly Cloudy
1:01 PM -9.0 °F -23.8 °F -18.0 °F 65% 30.19 in 10.0 mi South 6.9 mph - N/A   Clear
2:01 PM -8.0 °F -22.5 °F -18.0 °F 61% 30.21 in 10.0 mi SSW 6.9 mph - N/A   Clear
3:01 PM -7.1 °F -19.9 °F -18.0 °F 59% 30.21 in 10.0 mi SSW 5.8 mph - N/A   Clear
4:01 PM -7.1 °F -19.9 °F -17.0 °F 62% 30.22 in 10.0 mi SSW 5.8 mph - N/A   Clear
5:01 PM -8.0 °F -21.0 °F -18.0 °F 61% 30.23 in 10.0 mi SSW 5.8 mph - N/A   Clear
6:01 PM -9.9 °F -21.5 °F -18.9 °F 65% 30.25 in 10.0 mi SSW 4.6 mph - N/A   Clear
7:01 PM -14.1 °F -28.3 °F -22.0 °F 68% 30.25 in 10.0 mi SSW 5.8 mph - N/A   Clear
8:01 PM -17.0 °F - -24.0 °F 70% 30.26 in 10.0 mi Calm Calm - N/A   Clear
9:01 PM -20.0 °F - -26.0 °F 74% 30.27 in 10.0 mi Calm Calm - N/A   Clear
10:01 PM -22.0 °F - -27.0 °F 77% 30.28 in 9.0 mi Calm Calm - N/A   Clear
11:01 PM -23.1 °F - -27.9 °F 78% 30.30 in 10.0 mi Calm Calm - N/A   Clear